Wind_Speed
95 103 112 120 128 136 151 166 180 174 174 170 168 168 166 165 162 162 160 158 156 155 152 153 151 146 145 145 143 146 146 141 139 140 137 138 141 143 145 140 140 139 143 141 142 144 144 140 143 145 145 143 144 145
84 91 96 99 106 113 115 127 137 147 161 171 175 176 173 170 167 164 165 162 163 163 162 163 159 157 154 152 148 144 149 150 143 141 143 144 148 149 151 151 144 144 143 143 140 139 143 146 150 148 145 145 146 148
64 72 79 84 85 89 98 107 108 115 128 135 140 151 163 168 167 173 175 168 164 166 165 158 162 163 162 161 157 153 148 158 153 152 150 149 148 151 151 152 152 155 147 149 147 146 149 149 147 147 148 148 148 149
53 56 61 66 71 74 81 86 94 100 107 112 114 117 129 135 143 156 162 164 160 165 166 159 160 160 165 164 162 159 155 155 149 148 151 152 154 156 159 158 156 156 155 156 159 156 159 155 155 155 154 153 154 150
44 47 49 51 54 57 61 68 76 83 87 91 90 92 98 107 114 122 125 131 135 148 151 148 154 162 163 168 169 165 163 163 163 161 162 165 161 161 164 169 165 159 159 160 158 159 164 160 156 153 150 146 143 138
34 37 40 42 44 46 49 52 57 62 68 75 78 82 88 91 93 97 102 108 115 120 122 127 143 140 148 149 160 161 161 154 160 169 166 167 170 174 171 166 153 155 161 157 151 151 155 153 147 142 136 135 127 123
28 28 30 32 34 36 38 41 44 47 52 57 62 65 69 72 74 76 80 87 97 103 103 103 105 110 117 124 124 136 138 136 143 134 143 143 142 145 143 144 142 147 147 147 147 141 129 124 122 116 120 113 106 101
24 26 26 27 28 29 30 30 32 35 38 42 47 51 53 56 59 61 69 73 76 78 81 84 86 92 99 100 100 97 99 100 104 107 111 111 108 112 111 117 112 115 115 110 108 103 97 99 100 94 89 85 82 77
18 20 21 23 24 24 25 25 26 27 29 33 36 40 43 46 49 51 51 55 59 60 60 62 67 71 75 77 79 81 82 82 81 81 85 88 87 88 90 93 93 96 97 94 89 85 85 83 77 74 74 69 66 66
12 13 14 16 17 18 19 21 22 23 25 27 29 32 34 36 38 41 43 46 47 48 50 54 53 54 56 60 59 60 61 64 63 63 67 70 70 74 77 79 80 80 77 75 73 74 71 67 64 63 61 60 60 57
8 9 9 10 12 12 13 14 16 18 19 21 23 25 27 29 31 33 36 37 39 41 43 43 44 48 50 53 52 51 54 54 52 56 59 59 60 64 64 65 65 63 61 59 58 56 56 57 53 51 52 53 53 53
6 7 7 8 9 9 10 11 12 13 15 17 18 20 21 23 24 26 27 29 31 32 34 36 38 42 43 44 44 46 45 45 46 51 49 52 58 56 55 54 53 54 55 55 54 54 52 51 51 52 52 52 51 50
4 5 5 6 7 9 10 11 12 12 13 14 16 18 18 20 23 24 27 28 28 26 27 30 32 35 37 38 39 41 41 43 44 47 48 49 48 46 46 46 47 47 47 47 48 48 48 48 48 48 47 45 44 43
5 6 7 8 8 8 9 11 12 12 13 14 16 17 18 19 20 21 22 23 23 24 26 27 29 30 32 33 34 37 38 40 44 45 45 44 44 45 45 45 45 45 45 45 45 46 46 46 46 45 44 43 42 40
10 11 12 12 14 14 15 16 15 15 16 17 17 18 18 19 20 22 22 23 24 25 26 27 29 29 31 32 34 35 36 38 40 41 41 42 43 44 45 45 45 44 44 44 44 44 45 44 44 43 43 42 40 39
13 15 17 18 19 19 20 20 20 21 22 23 23 23 24 24 25 26 26 26 26 27 28 29 30 30 31 32 34 36 36 38 39 40 41 42 42 43 43 43 44 43 43 43 43 43 43 43 43 43 42 41 39 39
19 21 22 23 24 25 26 26 25 25 26 26 28 28 29 29 30 30 31 31 32 32 32 32 33 33 33 35 37 37 37 39 41 43 44 44 44 44 44 44 44 44 43 42 41 41 40 39 39 40 40 38 38 40
26 27 29 29 28 28 27 28 27 27 29 29 30 31 32 34 35 36 36 36 36 36 36 36 36 36 36 37 38 38 38 38 39 40 39 40 40 41 41 42 41 40 39 38 38 38 38 38 37 38 39 39 39 42
31 30 30 30 30 30 30 32 30 30 31 32 33 34 35 35 37 38 40 41 41 40 39 38 37 38 37 36 37 36 35 35 36 36 36 36 38 40 42 41 40 38 37 38 36 37 37 37 38 38 39 41 44 44
33 33 33 33 34 34 34 34 34 34 35 36 35 35 35 35 35 36 38 39 40 41 41 41 40 39 39 37 35 33 32 32 32 32 31 30 30 35 36 36 36 37 40 39 37 35 36 37 36 35 37 39 39 38
35 35 36 37 36 36 35 35 36 37 37 36 34 32 32 32 33 34 35 37 38 39 40 41 41 41 40 38 36 34 32 30 29 30 30 28 25 29 30 32 35 35 33 31 32 33 32 33 33 33 32 31 33 35
36 36 37 37 37 37 36 37 37 34 34 32 32 30 30 30 29 30 29 31 33 35 36 37 37 37 36 36 34 32 28 27 28 28 27 24 20 22 27 29 32 31 31 30 30 28 28 30 31 29 29 30 32 30
38 37 37 37 38 37 36 34 34 33 32 31 29 28 28 28 28 28 29 29 29 31 32 33 33 33 33 33 31 30 28 28 29 28 26 25 23 22 23 26 28 27 26 27 25 24 25 26 26 27 28 28 27 26
35 35 35 36 34 34 33 32 31 30 28 28 29 29 29 29 28 28 28 28 27 28 29 30 30 30 30 30 30 29 28 27 26 25 25 24 23 22 22 22 22 23 23 23 22 21 22 22 22 22 23 23 22 22
34 33 33 31 31 31 30 28 28 29 29 29 28 27 27 26 26 26 26 26 26 26 26 26 26 27 27 27 27 26 26 25 25 24 24 23 22 21 20 20 19 19 19 19 19 19 18 19 19 19 20 20 20 20
30 29 29 28 28 28 28 28 28 27 26 26 26 25 24 23 23 22 22 22 22 23 23 23 23 24 24 24 24 23 23 22 21 20 20 19 18 18 17 16 16 16 16 16 16 15 15 15 15 15 16 16 17 17
27 27 27 28 28 28 27 26 25 25 24 23 23 22 21 20 19 19 19 18 18 18 18 19 20 20 20 20 20 20 19 18 18 17 16 15 15 14 13 13 13 13 12 12 12 12 11 11 12 12 13 13 14 15
26 27 27 27 26 25 25 24 23 22 21 21 21 20 19 18 17 16 15 15 14 15 15 15 15 16 16 16 16 15 15 14 14 13 12 11 11 11 10 10 9 8 8 8 7 8 8 9 9 10 11 12 12 13
24 25 25 24 24 23 22 22 21 20 20 19 19 18 17 16 15 14 13 13 13 13 13 12 13 13 12 12 12 11 11 10 10 9 8 8 8 7 6 5 5 4 4 3 3 4 4 5 7 9 10 11 12 13
23 23 23 23 23 22 21 21 21 20 19 17 16 15 15 14 13 12 11 12 12 11 11 10 10 10 10 9 9 9 8 8 8 7 7 6 5 4 4 3 2 0 1 0 2 2 2 3 5 6 8 11 13 14
23 22 23 23 22 21 20 19 19 17 16 15 14 14 13 12 12 11 10 11 11 10 10 9 9 9 9 9 9 9 9 9 8 8 7 6 5 3 1 1 1 2 3 3 4 5 5 5 6 6 7 10 12 14
21 21 20 20 19 18 18 17 17 16 14 13 12 12 12 11 10 10 11 11 10 10 9 9 9 9 10 10 10 10 11 11 10 9 8 7 5 4 2 2 3 3 3 5 5 5 6 7 8 8 8 10 12 14
18 18 18 18 17 16 16 15 14 14 13 12 11 11 11 10 9 9 11 10 10 9 9 9 10 10 11 11 12 12 12 12 12 11 10 9 7 5 3 3 4 4 5 7 7 6 7 8 9 10 11 12 14 15
Wind_Direction
243 244 245 246 246 246 246 247 245 248 249 250 251 250 251 252 251 252 253 253 253 255 257 258 258 258 257 260 260 261 262 263 265 265 267 266 267 270 272 271 271 273 274 276 277 278 278 280 281 283 284 285 287 288
244 245 247 248 249 247 248 249 247 249 250 249 249 253 250 253 254 252 254 254 252 254 254 256 256 259 260 259 260 260 261 265 265 265 265 265 267 266 268 270 271 273 275 276 276 278 278 280 280 281 281 283 285 286
245 246 247 249 250 249 249 248 247 248 249 249 251 252 250 251 254 256 254 253 253 254 255 259 258 258 260 260 261 260 260 261 265 264 264 263 266 269 270 272 272 276 276 275 276 277 278 278 279 280 283 285 286 288
247 247 248 248 249 250 250 249 249 249 251 253 252 254 252 252 254 254 256 253 257 256 256 257 256 259 259 261 261 262 262 263 263 262 264 264 266 271 272 274 274 275 278 279 278 278 278 279 282 283 284 285 287 289
250 251 251 250 250 250 250 249 248 249 250 250 252 252 252 254 254 255 256 255 256 255 257 254 257 257 257 259 262 261 260 260 261 262 264 265 267 268 269 270 271 273 273 275 276 277 278 280 281 280 281 283 286 288
251 251 252 253 254 253 253 252 251 251 250 250 249 251 252 254 255 256 256 256 257 257 259 258 258 261 260 262 261 260 263 264 265 263 264 263 266 267 268 269 270 271 272 274 275 277 278 278 281 282 284 284 285 288
254 255 255 254 254 253 253 252 251 250 249 249 248 249 250 252 254 257 257 257 257 257 259 259 259 261 261 261 262 261 262 263 263 265 267 265 268 267 268 269 271 273 273 274 275 276 276 277 277 279 282 283 285 283
253 254 254 255 255 254 254 254 253 251 249 248 249 250 251 253 255 255 254 256 259 261 261 258 256 254 256 258 260 261 263 263 263 264 265 264 265 267 271 272 271 271 272 272 273 275 275 276 279 279 280 279 278 282
256 256 255 255 255 255 255 254 254 254 252 251 250 251 251 252 254 256 257 256 257 258 260 260 259 260 261 262 262 263 263 264 266 269 268 267 268 269 267 266 266 268 269 271 274 276 277 277 276 276 275 276 280 281
260 259 258 259 259 259 258 258 256 256 256 257 256 257 257 256 257 258 257 258 259 259 256 256 256 256 258 260 263 264 266 265 263 261 260 263 262 262 262 264 264 266 268 269 272 273 275 276 275 275 278 276 275 275
273 270 268 265 264 264 262 261 260 259 258 258 260 261 261 261 261 261 261 260 260 259 260 260 259 258 257 257 258 259 260 262 263 262 262 262 261 261 262 262 264 267 269 270 271 272 271 272 274 272 272 272 271 271
315 303 295 291 286 283 278 275 272 271 268 265 264 264 264 265 267 265 266 267 265 263 263 263 262 262 261 260 259 258 258 259 258 259 261 260 262 264 266 267 266 265 265 266 267 268 269 269 269 269 269 269 269 269
325 305 297 296 297 292 287 281 277 277 275 274 272 272 269 269 266 266 264 263 264 267 269 270 267 264 263 261 261 261 260 260 260 260 260 262 267 269 269 268 268 268 268 268 268 269 271 271 271 270 270 270 269 269
321 308 302 294 289 283 283 285 285 283 282 280 280 281 278 278 275 275 272 268 269 269 269 268 267 264 263 262 261 260 260 261 261 261 261 262 262 264 265 267 268 268 267 267 267 268 268 268 268 267 267 267 267 267
305 304 304 305 304 305 303 300 297 293 292 290 288 285 283 280 278 276 276 277 275 273 270 267 264 262 260 259 259 258 259 258 259 261 263 264 264 263 263 263 264 264 265 265 265 265 264 264 264 264 265 266 266 266
302 304 303 303 300 298 297 298 298 296 294 295 294 292 291 288 285 282 280 278 274 271 269 267 267 265 265 262 263 260 259 261 263 263 262 262 263 264 264 265 266 266 265 265 265 266 266 266 266 266 266 267 267 265
297 298 298 297 296 297 297 296 296 296 294 291 289 285 281 280 278 276 274 273 272 271 269 269 268 267 265 264 262 262 262 261 261 263 265 266 267 267 268 268 268 269 269 270 271 270 269 268 268 268 267 265 264 261
294 295 297 297 297 296 296 294 293 293 289 285 281 279 279 279 279 279 279 278 276 274 272 271 269 268 265 263 263 265 265 264 265 266 268 270 271 271 271 270 270 271 272 273 270 269 268 267 264 262 260 258 252 250
290 290 290 293 293 294 298 297 293 288 284 280 278 277 277 276 274 274 275 276 277 278 277 276 274 273 273 271 270 269 268 267 266 265 264 264 266 268 270 272 274 274 273 270 267 264 263 261 259 257 255 253 253 253
291 293 294 293 293 293 291 289 288 286 286 284 283 283 281 278 274 272 270 270 271 272 273 274 276 277 278 278 278 277 274 272 269 267 265 262 260 261 262 263 264 264 263 264 266 267 264 261 261 259 256 254 255 255
289 289 289 289 289 289 289 289 286 286 289 290 289 285 282 278 276 273 270 269 269 270 271 273 274 276 277 279 280 280 280 279 278 275 270 263 261 267 266 264 264 266 268 267 265 263 264 265 262 260 261 259 257 255
286 286 287 289 289 288 287 287 291 293 293 293 291 288 285 283 279 275 271 270 269 268 269 270 272 274 275 277 279 280 279 277 274 274 274 274 269 263 265 267 265 267 267 267 267 268 266 264 265 264 262 260 259 259
286 287 288 289 290 290 293 294 294 294 294 293 292 290 288 287 284 279 276 272 269 267 266 267 268 270 271 274 275 277 279 278 277 278 279 277 276 272 266 266 269 271 272 271 269 267 263 261 261 261 260 259 259 258
291 291 290 291 293 294 294 294 294 294 294 293 292 292 290 289 286 283 280 275 270 267 266 265 266 267 268 271 274 275 275 276 277 277 278 277 277 276 275 273 271 271 271 271 271 266 263 262 259 256 256 256 255 253
290 291 293 295 294 295 295 296 295 295 294 293 292 292 292 290 287 284 280 277 273 271 269 267 266 266 266 267 268 270 271 272 273 273 274 275 276 276 276 274 272 270 268 267 266 263 261 258 255 252 249 248 246 243
294 294 294 295 296 296 297 297 297 296 296 295 295 294 293 291 287 284 282 278 275 272 269 266 264 262 262 264 266 266 267 269 270 271 272 273 273 274 274 273 272 270 267 266 265 263 258 254 252 249 245 242 239 236
296 296 297 297 297 297 297 297 297 298 298 297 296 297 295 291 288 286 283 280 276 272 267 263 261 261 261 261 263 264 265 265 266 267 268 269 272 274 274 274 274 273 271 269 266 262 257 253 249 245 239 235 231 227
297 297 296 297 298 298 299 299 299 300 300 299 299 298 297 294 293 290 287 281 274 269 264 262 260 259 257 258 258 259 259 259 259 260 262 265 267 268 270 272 270 268 263 260 257 254 249 243 238 234 229 224 220 217
297 298 299 299 299 299 300 299 299 300 299 299 298 297 296 296 295 289 283 277 270 267 263 259 256 254 252 251 250 248 248 246 244 245 245 247 256 264 265 267 268 266 265 251 252 246 235 224 221 216 211 208 207 207
299 299 300 300 301 301 301 300 299 298 297 296 294 293 292 291 288 282 274 267 264 260 257 254 251 248 243 240 235 232 228 224 222 221 223 228 231 230 248 256 250 203 339 52 119 145 171 181 183 186 192 192 194 196
299 300 300 301 301 302 302 301 299 298 297 294 290 288 286 284 282 276 268 263 261 258 254 249 244 240 232 224 214 209 208 205 204 206 203 204 201 199 206 134 71 50 67 71 92 109 119 130 138 144 158 168 176 181
303 302 302 302 303 303 302 299 296 296 296 291 288 285 282 279 276 270 261 257 253 250 248 240 234 227 220 213 207 202 200 197 195 193 187 191 190 168 151 121 85 75 82 87 85 83 99 116 119 122 141 155 158 161
310 309 307 306 305 305 304 301 298 297 298 294 286 280 276 270 268 258 253 251 249 247 243 235 226 218 213 209 204 199 197 193 191 188 186 184 184 167 160 137 103 92 94 102 103 104 107 109 111 120 126 138 145 149
Height
10116 10126 10132 10140 10148 10156 10169 10179 10193 10211 10221 10228 10238 10246 10261 10277 10286 10282 10295 10302 10299 10301 10317 10325 10337 10351 10357 10358 10356 10364 10365 10367 10369 10369 10365 10366 10360 10359 10358 10373 10372 10375 10367 10365 10359 10351 10351 10355 10340 10335 10334 10332 10327 10325
10093 10100 10106 10111 10116 10126 10133 10148 10155 10167 10171 10182 10193 10206 10217 10235 10242 10241 10251 10262 10263 10267 10280 10282 10291 10304 10306 10315 10325 10324 10334 10339 10338 10336 10335 10330 10326 10321 10329 10326 10339 10330 10339 10335 10334 10330 10322 10312 10307 10309 10309 10299 10298 10294
10074 10078 10083 10088 10093 10098 10106 10116 10124 10128 10134 10142 10153 10161 10173 10186 10191 10202 10206 10210 10221 10229 10243 10252 10258 10258 10263 10271 10276 10292 10301 10299 10303 10297 10297 10298 10290 10290 10293 10292 10293 10295 10302 10296 10298 10302 10290 10279 10280 10276 10271 10270 10266 10260
10056 10059 10063 10068 10073 10077 10083 10089 10097 10103 10107 10113 10118 10127 10134 10139 10148 10154 10161 10165 10178 10192 10204 10220 10212 10220 10222 10226 10235 10244 10256 10257 10262 10260 10253 10257 10265 10260 10257 10256 10253 10260 10263 10258 10248 10254 10239 10246 10248 10244 10241 10239 10232 10225
10042 10044 10048 10052 10056 10059 10063 10068 10072 10076 10078 10083 10090 10095 10100 10105 10109 10115 10120 10131 10139 10145 10158 10169 10179 10187 10185 10187 10191 10199 10208 10211 10213 10218 10220 10221 10226 10227 10223 10217 10225 10233 10230 10219 10216 10216 10204 10219 10210 10211 10207 10208 10203 10194
10031 10033 10036 10038 10041 10044 10047 10049 10051 10053 10056 10062 10066 10072 10075 10079 10081 10087 10092 10103 10105 10106 10116 10129 10147 10152 10145 10142 10143 10147 10155 10162 10166 10172 10178 10184 10194 10179 10180 10182 10198 10191 10186 10186 10188 10178 10173 10174 10172 10171 10173 10172 10168 10164
10022 10024 10026 10027 10028 10029 10031 10032 10034 10036 10039 10043 10046 10051 10054 10057 10061 10066 10073 10071 10070 10075 10087 10101 10118 10115 10106 10099 10102 10111 10115 10124 10128 10132 10133 10141 10144 10143 10144 10147 10152 10152 10153 10148 10144 10147 10145 10140 10147 10147 10146 10142 10138 10134
10014 10015 10016 10018 10019 10020 10021 10022 10022 10023 10025 10028 10030 10035 10038 10041 10043 10047 10045 10047 10052 10058 10067 10076 10081 10078 10067 10070 10074 10081 10085 10087 10091 10092 10098 10105 10114 10114 10122 10111 10110 10111 10113 10113 10110 10110 10113 10113 10117 10121 10119 10116 10113 10111
10008 10009 10010 10010 10011 10012 10012 10013 10014 10015 10016 10018 10019 10021 10025 10027 10029 10030 10035 10034 10035 10040 10044 10048 10047 10048 10048 10051 10053 10056 10060 10061 10066 10069 10073 10076 10085 10092 10090 10078 10078 10080 10080 10082 10081 10083 10084 10088 10093 10093 10094 10091 10090 10089
10005 10005 10005 10005 10005 10005 10006 10006 10007 10007 10008 10009 10010 10012 10014 10016 10017 10018 10020 10020 10021 10024 10026 10024 10030 10031 10031 10031 10036 10038 10042 10043 10046 10047 10047 10052 10057 10052 10051 10051 10053 10057 10060 10061 10062 10062 10064 10067 10068 10068 10068 10069 10069 10068
10003 10002 10003 10002 10002 10002 10002 10002 10002 10002 10002 10002 10003 10003 10004 10005 10006 10007 10007 10009 10010 10010 10010 10012 10014 10013 10014 10014 10017 10021 10019 10023 10029 10027 10027 10031 10030 10028 10031 10034 10037 10041 10043 10045 10045 10045 10044 10044 10045 10047 10048 10049 10049 10050
10002 10001 10001 10000 9999 9999 9998 9998 9998 9997 9997 9998 9998 9997 9997 9997 9997 9997 9996 9996 9996 9996 9997 9998 9999 9998 10000 10001 10003 10004 10007 10009 10010 10009 10014 10012 10010 10016 10019 10021 10023 10023 10024 10025 10025 10025 10025 10026 10027 10029 10030 10031 10033 10034
10001 10001 10000 9999 9998 9997 9996 9995 9995 9994 9993 9993 9993 9992 9991 9991 9990 9990 9989 9988 9987 9985 9985 9986 9986 9986 9987 9989 9990 9991 9993 9996 9997 9996 9998 9998 10001 10003 10003 10004 10005 10006 10007 10007 10007 10008 10009 10011 10012 10014 10016 10017 10018 10019
10001 10000 10000 9999 9998 9997 9995 9994 9992 9991 9991 9989 9988 9986 9985 9984 9983 9982 9981 9980 9979 9979 9979 9978 9978 9978 9977 9978 9979 9980 9982 9982 9981 9982 9984 9987 9987 9987 9987 9988 9989 9990 9991 9993 9994 9994 9995 9997 9998 10000 10001 10002 10002 10004
9998 9997 9996 9995 9993 9992 9990 9989 9988 9988 9986 9984 9983 9981 9980 9978 9976 9974 9972 9971 9970 9969 9969 9969 9969 9969 9969 9969 9969 9969 9969 9968 9968 9968 9971 9971 9972 9972 9973 9973 9974 9974 9975 9977 9978 9979 9980 9982 9983 9984 9985 9987 9989 9991
9997 9995 9993 9992 9990 9989 9986 9984 9982 9981 9979 9977 9976 9974 9971 9970 9967 9965 9964 9962 9961 9960 9959 9958 9958 9957 9957 9958 9957 9957 9958 9956 9956 9956 9956 9957 9958 9959 9959 9959 9960 9961 9962 9964 9965 9966 9967 9968 9969 9971 9972 9975 9978 9979
9993 9991 9989 9987 9985 9982 9980 9978 9976 9973 9971 9969 9967 9965 9963 9961 9959 9957 9956 9955 9953 9951 9950 9949 9948 9946 9947 9947 9946 9946 9947 9947 9946 9945 9945 9946 9946 9947 9947 9947 9947 9948 9949 9950 9951 9952 9953 9955 9957 9959 9960 9963 9965 9966
9988 9986 9983 9981 9979 9976 9973 9971 9969 9966 9963 9960 9958 9955 9953 9950 9948 9945 9944 9942 9941 9939 9938 9938 9937 9937 9936 9936 9935 9935 9936 9936 9935 9934 9935 9935 9935 9934 9934 9933 9935 9936 9937 9938 9939 9940 9941 9943 9944 9945 9946 9947 9950 9948
9981 9979 9976 9973 9969 9966 9964 9961 9959 9957 9953 9950 9947 9945 9943 9940 9938 9935 9933 9930 9928 9927 9926 9925 9925 9924 9923 9923 9923 9923 9924 9924 9924 9924 9925 9927 9926 9924 9922 9923 9923 9924 9925 9924 9926 9928 9929 9930 9930 9931 9931 9932 9931 9933
9972 9969 9966 9963 9960 9957 9954 9951 9948 9944 9941 9938 9935 9933 9930 9927 9925 9923 9921 9919 9917 9916 9914 9912 9911 9911 9910 9910 9911 9911 9912 9911 9912 9912 9914 9915 9916 9913 9913 9914 9914 9913 9912 9913 9915 9916 9915 9915 9916 9917 9916 9917 9919 9921
9961 9958 9955 9952 9948 9946 9943 9939 9935 9932 9929 9926 9923 9920 9917 9915 9913 9911 9909 9907 9905 9904 9902 9901 9900 9900 9900 9900 9900 9900 9901 9900 9901 9900 9900 9901 9904 9902 9901 9901 9899 9900 9901 9902 9901 9901 9902 9902 9902 9903 9904 9905 9906 9906
9949 9946 9942 9940 9937 9934 9930 9927 9924 9921 9918 9915 9912 9909 9906 9904 9902 9900 9898 9896 9894 9893 9892 9891 9891 9890 9890 9889 9889 9889 9890 9891 9890 9889 9889 9890 9892 9892 9891 9890 9888 9889 9889 9890 9890 9891 9892 9891 9890 9892 9893 9893 9893 9895
9937 9934 9932 9929 9925 9923 9919 9916 9913 9910 9907 9904 9901 9898 9896 9894 9891 9889 9887 9886 9884 9883 9882 9881 9881 9881 9880 9880 9880 9880 9881 9881 9880 9880 9881 9881 9881 9882 9882 9880 9879 9879 9879 9879 9879 9880 9880 9880 9880 9881 9881 9882 9883 9884
9927 9923 9920 9917 9914 9911 9908 9905 9902 9899 9896 9893 9891 9888 9886 9884 9882 9879 9878 9876 9875 9874 9873 9873 9872 9872 9872 9871 9871 9872 9872 9872 9872 9872 9872 9872 9872 9872 9872 9872 9871 9871 9871 9870 9871 9871 9871 9871 9872 9872 9873 9873 9875 9876
9915 9912 9909 9907 9904 9901 9898 9895 9893 9890 9887 9884 9881 9878 9876 9873 9871 9869 9867 9865 9864 9864 9863 9863 9863 9864 9863 9863 9863 9864 9864 9864 9864 9864 9864 9864 9864 9864 9864 9864 9864 9864 9863 9863 9863 9863 9863 9864 9864 9865 9866 9867 9868 9870
9904 9902 9899 9897 9894 9891 9889 9886 9883 9880 9877 9874 9872 9869 9867 9865 9862 9860 9859 9857 9856 9856 9856 9856 9856 9856 9856 9856 9857 9857 9857 9858 9858 9858 9858 9858 9858 9858 9858 9857 9857 9857 9857 9857 9857 9857 9857 9858 9858 9859 9860 9861 9862 9864
9895 9893 9890 9887 9885 9883 9880 9877 9874 9872 9869 9866 9864 9862 9860 9858 9856 9854 9853 9851 9851 9850 9849 9849 9849 9849 9850 9850 9851 9851 9851 9852 9852 9852 9853 9853 9853 9853 9852 9852 9852 9852 9852 9852 9852 9853 9853 9853 9854 9854 9855 9856 9858 9859
9887 9885 9882 9880 9877 9875 9872 9869 9866 9864 9861 9859 9857 9855 9853 9851 9850 9848 9847 9846 9845 9844 9843 9843 9844 9844 9844 9845 9846 9846 9847 9847 9847 9848 9848 9848 9848 9849 9849 9849 9849 9849 9849 9849 9849 9850 9850 9850 9850 9850 9851 9853 9854 9855
9880 9877 9875 9873 9870 9867 9865 9862 9859 9857 9855 9853 9851 9849 9848 9846 9845 9844 9843 9842 9840 9840 9840 9840 9840 9840 9841 9842 9842 9843 9844 9845 9845 9846 9846 9847 9847 9847 9848 9847 9847 9847 9847 9847 9847 9847 9847 9847 9847 9848 9849 9850 9851 9853
9872 9869 9867 9865 9862 9860 9858 9855 9853 9851 9850 9848 9846 9845 9843 9842 9841 9840 9839 9838 9837 9837 9836 9836 9837 9838 9839 9839 9840 9841 9842 9843 9844 9845 9845 9846 9846 9847 9847 9847 9847 9846 9846 9846 9846 9845 9846 9846 9846 9847 9847 9848 9850 9851
9864 9862 9859 9857 9855 9853 9851 9849 9847 9845 9844 9842 9841 9839 9838 9837 9836 9836 9835 9834 9834 9834 9834 9834 9835 9836 9837 9838 9839 9840 9842 9843 9844 9845 9846 9846 9846 9847 9847 9847 9847 9847 9847 9846 9846 9846 9846 9846 9847 9847 9848 9849 9850 9852
9858 9855 9853 9851 9849 9847 9845 9843 9841 9840 9839 9838 9837 9836 9835 9834 9834 9833 9833 9832 9832 9832 9832 9833 9834 9835 9836 9837 9838 9840 9841 9843 9844 9845 9846 9846 9847 9848 9849 9849 9848 9848 9848 9847 9847 9847 9847 9848 9848 9849 9850 9851 9853 9854
9853 9850 9848 9846 9844 9842 9841 9839 9838 9836 9835 9834 9833 9832 9831 9831 9831 9831 9830 9830 9831 9831 9831 9831 9832 9833 9834 9836 9837 9839 9841 9842 9844 9845 9846 9848 9849 9850 9851 9851 9851 9851 9851 9850 9850 9850 9850 9851 9851 9852 9853 9854 9855 9857